Preview of NWS' New Version of Forecast
This preview is not operational and should not be used for support decisions.

Regional Weather Roundup (RWR)

Issued by National Weather Service (NWS)

                            
000
ASUS46 KPQR 212310
RWROR 

OREGON REGIONAL WEATHER ROUNDUP
NATIONAL WEATHER SERVICE PORTLAND OR
400 PM PDT WED AUG 21 2019

NOTE: "FAIR" INDICATES FEW OR NO CLOUDS BELOW 12,000 FEET WITH
NO SIGNIFICANT WEATHER AND/OR OBSTRUCTIONS TO VISIBILITY.

ORZ001>013-220000-
NORTHWEST OREGON

  
CITY           SKY/WX    TMP DP  RH WIND       PRES   REMARKS
ASTORIA        CLOUDY    63  61  93 W7        29.98F FOG              
TILLAMOOK      CLOUDY    63  61  94 SW9G16    30.01S                  
NEWPORT        DRIZZLE   63  63 100 S10       30.03F                  
FLORENCE       DRIZZLE   63  61  94 W5        30.01F                  
PORTLAND       CLOUDY    68  60  75 SE8       29.99S                  
VANCOUVER WA   CLOUDY    68  59  73 S8        29.99S                  
SCAPPOOSE      LGT RAIN  67  62  84 CALM      29.97S                  
HILLSBORO      LGT RAIN  69  59  70 S12       29.98S                  
AURORA         CLOUDY    68  59  73 S12       30.00F                  
MCMINNVILLE    CLOUDY    70  59  68 S10       29.98F                  
SALEM          CLOUDY    69  58  67 S14       29.99F                  
CORVALLIS      CLOUDY    68  62  81 S15       30.01F                  
EUGENE         PTSUNNY   70  62  76 S8        30.02F                  
CRESWELL       CLOUDY    68  63  83 CALM      30.01F                  
$$

ORZ021-028-220000-
SOUTHWEST OREGON

  
CITY           SKY/WX    TMP DP  RH WIND       PRES   REMARKS
NORTH BEND     CLOUDY    69  65  86 VRB5      30.02F                  
BROOKINGS      CLOUDY    64  62  93 VRB5      30.02F                  
ROSEBURG       LGT RAIN  65  64  97 CALM      30.03F                  
SEXTON SUMMIT  LGT RAIN  56  55  97 SE3       30.10F VSB<1/4          
GRANTS PASS    LGT RAIN  61  59  94 CALM      30.08F                  
MEDFORD        CLOUDY    67  60  78 N6        30.03F                  
$$

ORZ014>016-041-220000-
COLUMBIA GORGE

  
CITY           SKY/WX    TMP DP  RH WIND       PRES   REMARKS
TROUTDALE      LGT RAIN  66  61  84 CALM      30.00S                  
HOOD RIVER     CLOUDY    64  59  82 W10G17    29.99S                  
THE DALLES     LGT RAIN  67  60  78 NW13      29.94R                  
$$

ORZ029>031-041-044-049-050-061>064-502-503-505>511-220000-
EASTERN OREGON

  
CITY           SKY/WX    TMP DP  RH WIND       PRES   REMARKS
MADRAS         LGT RAIN  61  57  88 SE6       30.07S                  
REDMOND        LGT RAIN  61  57  87 SE3       30.07F FOG              
BEND           LGT RAIN  59  57  94 SE3       30.08F                  
PRINEVILLE     LGT RAIN  59  57  94 NW5       30.09R                  
KLAMATH FALLS  CLOUDY    72  49  44 NW17      30.05F                  
LAKEVIEW       CLOUDY    79  41  25 W10       30.05F                  
HERMISTON      CLOUDY    83  55  38 W15G26    29.85F                  
PENDLETON      CLOUDY    81  45  28 W23G30    29.89S                  
JOHN DAY       PTSUNNY   84  44  25 W21       29.94F                  
MEACHAM        CLOUDY    75  42  30 MISG      30.01R                  
LA GRANDE      CLOUDY    81  48  31 NW22G28   29.89S                  
BAKER CITY     CLOUDY    85  55  35 NW12      29.88F                  
BURNS          PTSUNNY   86  38  18 W10       29.96F                  
ROME             N/A     94  32  11 W5G17     29.88F                  
ONTARIO        SUNNY     99  42  14 E5        29.77F HX  94           
$$